RH
87 89 86 84 79 52 44 72 66 69 67 56 42 46 58 75 76 87 96 98 92 77 76 76 75 73 71 68 60 54 56 79 88
89 93 88 85 93 74 39 80 69 64 68 57 39 47 56 86 77 89 95 82 76 72 77 80 82 71 75 67 82 81 93 96 95
93 97 95 90 72 78 35 59 76 69 63 52 51 63 72 86 84 81 100 86 78 86 89 89 92 96 98 96 95 93 91 92 90
98 95 92 86 65 48 42 49 80 79 59 58 72 68 76 100 90 95 97 89 86 84 92 92 97 98 96 91 91 92 91 97 98
94 89 84 81 60 37 40 37 71 78 78 73 72 72 75 74 68 95 85 90 94 75 76 85 93 92 93 93 94 98 98 98 96
85 90 80 68 50 38 34 51 76 76 80 74 72 82 71 70 74 93 90 90 86 75 76 92 92 98 98 97 98 98 98 99 99
96 97 89 78 58 42 34 52 74 83 82 63 83 77 75 77 82 84 86 99 95 89 80 78 82 97 98 98 96 99 99 100 99
100 89 81 75 65 36 47 78 79 70 93 71 86 73 76 80 88 75 90 99 98 98 79 79 73 95 98 97 98 99 100 98 98
92 98 97 87 78 92 79 89 89 64 90 97 78 73 77 71 79 84 90 98 99 98 73 66 88 97 97 98 97 97 98 96 46
96 92 92 85 86 82 86 91 82 85 84 88 92 76 80 75 79 87 100 100 98 97 88 76 68 95 98 98 98 99 92 33 24
100 99 96 76 88 86 89 99 82 78 91 100 94 80 83 79 81 99 98 97 98 95 94 94 92 90 93 98 100 97 35 28 20
100 90 83 97 75 77 94 89 83 78 84 86 88 70 90 69 98 100 98 98 96 90 89 92 86 88 95 98 96 35 28 23 20
100 100 98 93 83 69 54 84 81 82 81 81 73 90 97 96 96 97 99 99 95 92 88 83 85 86 96 99 43 28 26 24 21
100 100 100 98 92 74 67 86 86 81 86 83 84 90 98 99 89 99 100 97 93 93 93 91 94 79 96 94 41 30 28 26 24
88 91 100 100 100 92 77 89 92 84 92 90 87 78 87 95 100 98 94 100 100 100 92 90 92 84 89 65 36 32 32 30 28
64 85 96 100 100 100 92 87 90 84 95 89 80 83 93 100 96 98 98 90 89 84 84 100 87 87 87 76 67 31 34 35 32
96 88 90 96 100 99 99 91 100 99 92 93 85 99 99 100 98 100 86 79 85 85 96 95 96 83 72 70 66 32 34 39 38
85 74 84 80 99 97 99 97 95 100 96 90 87 99 96 98 100 99 97 89 89 90 95 95 89 88 78 58 49 32 35 42 44
91 83 89 89 87 89 99 100 98 100 93 100 91 80 80 97 100 100 100 95 94 92 91 90 84 85 75 46 35 34 37 45 50
97 84 89 92 87 85 93 99 99 96 90 88 80 77 86 78 78 94 99 100 99 95 96 90 92 88 68 47 36 40 41 48 54
Wind_Speed
12 11 11 7 2 3 7 8 9 8 7 9 10 11 11 10 5 8 5 7 5 3 3 3 4 4 5 6 7 6 3 6 8
13 14 10 6 6 4 7 8 8 9 8 9 11 11 12 6 7 7 6 2 1 3 1 3 3 2 1 4 9 9 12 12 11
14 17 11 8 7 7 7 11 10 9 9 10 12 13 13 11 9 5 9 1 5 7 11 11 12 13 14 13 13 11 11 11 10
16 12 9 10 7 8 9 13 11 10 10 13 13 12 14 11 7 6 5 2 3 10 9 8 10 11 11 11 11 11 10 10 10
13 14 14 12 11 11 11 16 16 13 13 13 13 13 15 11 8 2 6 2 8 6 4 5 12 12 14 12 11 10 11 9 12
14 14 16 13 11 11 13 18 17 16 13 12 13 15 12 9 5 7 5 6 7 5 9 11 10 9 10 9 9 9 10 12 11
9 13 14 13 8 11 14 18 18 16 14 15 16 12 11 8 6 9 10 16 9 6 4 4 5 9 10 10 8 11 12 10 10
17 18 14 8 10 11 16 18 16 16 13 16 18 14 9 6 6 12 10 17 10 9 2 1 4 9 9 8 11 10 10 8 7
15 10 8 7 11 11 12 15 12 15 15 14 17 15 10 6 13 15 13 18 15 9 4 5 9 9 9 9 9 8 7 5 5
21 18 11 8 9 11 14 18 21 18 16 14 19 16 7 13 18 15 21 18 12 7 3 4 2 10 8 8 8 7 6 3 4
27 21 12 9 13 12 16 16 21 21 17 13 20 16 10 14 14 19 17 11 6 4 4 5 6 9 8 8 7 7 3 2 2
28 24 24 20 18 16 20 20 20 21 23 18 15 17 13 13 12 17 18 10 6 3 3 6 7 9 8 8 6 3 1 1 3
23 25 27 26 20 26 20 20 21 21 22 21 19 19 16 15 17 17 13 11 8 5 4 7 9 8 8 7 3 1 1 3 4
18 28 25 28 29 26 21 26 27 25 24 23 21 19 14 14 16 17 11 8 7 7 10 11 11 9 8 5 1 2 3 4 5
19 21 27 32 31 25 25 30 29 23 24 25 22 22 23 16 13 12 12 12 11 13 11 14 14 12 13 7 5 6 7 6 7
21 21 21 31 33 31 33 29 30 28 26 27 24 22 26 25 21 20 19 16 14 11 11 16 17 15 15 15 12 10 10 10 10
20 22 21 21 25 32 35 32 34 33 32 32 28 20 26 24 25 25 22 19 16 15 19 20 17 16 18 18 16 14 13 12 11
20 23 21 22 22 23 31 34 34 35 35 37 23 13 15 28 27 24 21 20 20 20 21 21 22 19 20 20 19 17 15 14 13
18 20 23 20 25 24 24 36 37 43 36 38 37 22 21 19 16 28 27 26 26 24 23 23 23 25 22 23 21 18 17 16 15
21 20 23 24 23 25 26 31 38 39 37 41 38 37 29 25 20 23 29 30 30 27 27 26 25 26 23 22 22 20 19 18 16
Wind_Direction
202 195 188 175 177 160 157 179 196 196 178 159 156 157 143 104 186 161 134 138 158 146 166 193 205 230 252 265 277 273 212 101 97
207 191 182 202 253 229 178 186 192 183 182 175 161 151 133 124 201 138 171 236 93 20 119 216 227 242 194 111 102 92 104 105 105
208 200 199 226 272 228 195 181 197 198 196 181 165 149 149 182 181 172 167 101 32 86 112 121 124 125 119 118 112 114 99 99 103
195 216 230 256 279 243 207 181 188 190 184 179 172 159 160 145 131 172 193 118 62 147 143 135 128 114 112 112 119 116 122 112 106
229 250 256 261 280 239 204 185 185 189 183 189 182 166 179 174 166 214 249 208 133 114 184 138 120 132 129 126 132 123 113 108 96
245 250 256 262 283 225 194 183 188 199 196 195 192 170 189 186 177 222 255 192 157 105 66 131 145 141 142 146 122 121 117 104 104
228 246 252 264 282 202 187 181 190 198 204 192 190 183 198 197 190 230 251 168 175 132 59 160 170 132 131 128 125 113 108 102 108
228 248 254 252 202 182 172 175 187 176 202 192 186 195 199 198 216 242 240 177 183 154 7 302 181 145 137 135 122 114 106 107 122
239 223 217 201 192 177 189 192 172 180 210 206 189 197 196 213 220 231 222 166 167 156 308 17 151 147 146 128 130 124 119 117 90
230 220 216 190 198 187 207 195 178 178 208 211 191 190 194 215 227 215 171 163 159 157 105 354 165 158 157 146 142 137 115 99 70
227 205 212 217 182 193 212 211 191 193 196 175 184 175 199 227 202 182 169 168 159 147 163 154 169 157 172 161 145 140 120 85 51
228 249 268 248 220 192 217 213 201 205 208 207 197 200 209 226 191 196 187 174 177 181 182 180 182 180 184 160 154 143 122 26 0
250 240 247 253 227 206 212 208 207 212 212 213 208 204 209 195 203 201 199 186 180 184 203 190 193 208 195 158 158 160 342 335 333
250 238 244 229 218 217 213 206 212 206 209 210 211 201 197 206 209 205 198 206 212 205 193 193 209 220 204 161 209 310 317 319 322
243 249 245 237 228 227 223 207 207 211 214 208 205 209 218 202 186 201 188 181 181 193 202 216 214 223 243 254 277 293 300 307 309
232 241 253 237 236 223 222 215 212 204 209 210 203 213 216 210 199 188 186 224 221 222 221 203 223 227 247 263 272 284 293 302 308
240 234 240 238 245 235 220 212 211 211 206 204 198 190 210 199 199 193 220 216 222 216 203 220 230 247 259 260 265 274 281 287 294
238 229 234 239 234 230 227 222 224 213 210 210 207 184 197 210 205 209 216 210 213 217 217 234 246 252 265 260 261 266 272 280 289
245 236 234 229 236 236 241 223 218 222 224 209 208 209 212 184 189 197 203 213 212 218 228 232 243 249 256 259 265 269 274 280 286
237 233 235 233 230 234 237 227 226 231 229 225 228 219 214 217 215 209 205 204 212 226 224 234 238 246 253 260 262 267 269 274 281